TimeMST,TemperatureF,Dew PointF,Humidity,Sea Level PressureIn,VisibilityMPH,Wind Direction,Wind SpeedMPH,Gust SpeedMPH,PrecipitationIn,Events,Conditions,WindDirDegrees,DateUTC
12:53 AM,6.1,3.9,91,30.64,10.0,Calm,Calm,-,N/A,,Clear,0,2014-01-15 07:53:00
1:53 AM,3.0,-0.9,84,30.65,10.0,South,3.5,-,N/A,,Clear,170,2014-01-15 08:53:00
2:53 AM,1.9,-2.0,83,30.66,10.0,Calm,Calm,-,N/A,,Clear,0,2014-01-15 09:53:00
3:53 AM,3.9,-0.0,84,30.64,10.0,Calm,Calm,-,N/A,,Clear,0,2014-01-15 10:53:00
4:53 AM,1.0,-5.1,75,30.67,10.0,Calm,Calm,-,N/A,,Clear,0,2014-01-15 11:53:00
5:53 AM,-0.0,-6.0,76,30.70,10.0,Calm,Calm,-,N/A,,Clear,0,2014-01-15 12:53:00
6:53 AM,-0.0,-5.1,79,30.71,10.0,Calm,Calm,-,N/A,,Clear,0,2014-01-15 13:53:00
7:53 AM,1.9,-2.9,80,30.71,10.0,Calm,Calm,-,N/A,,Clear,0,2014-01-15 14:53:00
8:53 AM,3.9,-2.0,76,30.74,10.0,Calm,Calm,-,N/A,,Clear,0,2014-01-15 15:53:00
9:53 AM,8.1,3.9,83,30.72,10.0,Calm,Calm,-,N/A,,Clear,0,2014-01-15 16:53:00
10:53 AM,12.0,9.0,88,30.73,10.0,SW,5.8,-,N/A,,Clear,230,2014-01-15 17:53:00
11:53 AM,15.1,10.9,84,30.69,10.0,SW,3.5,-,N/A,,Clear,230,2014-01-15 18:53:00
12:53 PM,19.0,12.9,77,30.61,10.0,SSW,3.5,-,N/A,,Clear,200,2014-01-15 19:53:00
1:53 PM,21.9,14.0,72,30.59,10.0,Calm,Calm,-,N/A,,Clear,0,2014-01-15 20:53:00
2:53 PM,19.9,14.0,78,30.57,10.0,Calm,Calm,-,N/A,,Clear,0,2014-01-15 21:53:00
3:53 PM,21.0,12.9,71,30.55,10.0,Calm,Calm,-,N/A,,Clear,0,2014-01-15 22:53:00
4:53 PM,16.0,10.0,77,30.60,10.0,Calm,Calm,-,N/A,,Clear,0,2014-01-15 23:53:00
5:53 PM,15.1,10.0,80,30.63,10.0,Calm,Calm,-,N/A,,Clear,0,2014-01-16 00:53:00
6:53 PM,15.1,10.0,80,30.61,10.0,West,3.5,-,N/A,,Clear,270,2014-01-16 01:53:00
7:53 PM,12.9,9.0,84,30.61,10.0,NE,3.5,-,N/A,,Clear,40,2014-01-16 02:53:00
8:53 PM,12.0,9.0,88,30.63,10.0,East,4.6,-,N/A,,Clear,90,2014-01-16 03:53:00
9:53 PM,10.9,8.1,88,30.62,10.0,East,3.5,-,N/A,,Clear,90,2014-01-16 04:53:00
10:53 PM,3.9,1.0,88,30.65,10.0,ESE,3.5,-,N/A,,Clear,120,2014-01-16 05:53:00
11:53 PM,3.9,1.0,88,30.62,10.0,Calm,Calm,-,N/A,,Clear,0,2014-01-16 06:53:00